Location: Campillo
(40.8621°N, 4.2488°W)
Time: 10:07:08
(UTC+00:00)

USA 306 - Pass Details

Date: 27 September 2021
Orbit: 564 x 573 km, 54.0° (Epoch: 24 September)

Event Time Altitude Azimuth Distance (km) Brightness Sun altitude
Rises 19:16:46 0° 314° (NW) 2,761 7.4 -14.3°
Reaches altitude 10° 19:19:30 10° 331° (NNW) 1,864 6.1 -14.8°
Maximum altitude 19:22:41 20° 20° (NNE) 1,331 4.7 -15.4°
Enters shadow 19:24:24 16° 51° (NE) 1,508 4.7 -15.7°
